Weather History for West Palm Beach, FL

Change the Weather History Date:

Thursday, March 1, 2012

  Actual Average Record
Temperature  
Mean Temperature 74 °F 69 °F  
Max Temperature 82 °F 78 °F 88 °F (2011)
Min Temperature 66 °F 61 °F 36 °F (1984)
Degree Days  
Heating Degree Days 0 1  
Month to date heating degree days 0 1  
Since 1 July heating degree days 109 206  
Cooling Degree Days 9 5  
Month to date cooling degree days 9 5  
Year to date cooling degree days 325 240  
Growing Degree Days 24 (Base 50)    
Moisture  
Dew Point 68 °F    
Average Humidity 80    
Maximum Humidity 93    
Minimum Humidity 67    
Precipitation  
Precipitation T in 0.12 in 2.52 in (1980)
Month to date precipitation T 0.12  
Year to date precipitation 4.20 6.07  
Snow  
Snow 0.00 in - - ()
Month to date snowfall 0.0  
Since 1 July snowfall 0.0  
Snow Depth 0.00 in    
Sea Level Pressure  
Sea Level Pressure 30.08 in    
Wind  
Wind Speed 6 mph (SSE)    
Max Wind Speed 18 mph    
Max Gust Speed 46 mph    
Visibility 10 miles    
Events Rain    
T = Trace of Precipitation, MM = Missing Value Source: NWS Daily Summary

Daily Weather History Graph

Daily Weather History Graph

Search for Another Location

Airport:

Trip Planner

Search our weather history database for the weather conditions in past years. The results will help you decide how hot, cold, wet, or windy it might be!

Date:

Astronomy

Mar. 01, 2012 Rise Set
Actual Time 6:43 AM EST 6:21 PM EST
Civil Twilight 6:20 AM EST 6:45 PM EST
Nautical Twilight 5:53 AM EST 7:12 PM EST
Astronomical Twilight 5:26 AM EST 7:38 PM EST
Moon 12:05 PM EST (3/1) 1:16 AM EST (3/1)
Length of Visible Light 12h 24m
Length of Day
11h 38m
First Quarter, 56% of the Moon is Illuminated
Mar 1
First Quarter
Mar 8
Full
Mar 14
Last Quarter
Mar 22
New
Mar 30
First Quarter

Hourly Weather History & Observations

Time (EST) Temp. Heat Index Dew Point Humidity Pressure Visibility Wind Dir Wind Speed Gust Speed Precip Events Conditions
12:53 AM 72.0 °F - 68.0 °F 87% 30.12 in 10.0 mi Calm Calm - N/A   Partly Cloudy
1:53 AM 71.1 °F - 68.0 °F 90% 30.10 in 10.0 mi Calm Calm - N/A   Partly Cloudy
2:53 AM 68.0 °F - 66.9 °F 96% 30.08 in 10.0 mi Calm Calm - N/A   Partly Cloudy
3:53 AM 69.1 °F - 66.9 °F 93% 30.07 in 10.0 mi Calm Calm - N/A   Scattered Clouds
4:53 AM 68.0 °F - 66.9 °F 96% 30.08 in 10.0 mi NNW 3.5 mph - N/A   Mostly Cloudy
5:01 AM 68.0 °F - 66.2 °F 94% 30.08 in 10.0 mi NNW 3.5 mph - N/A   Scattered Clouds
5:53 AM 68.0 °F - 66.9 °F 96% 30.09 in 10.0 mi Calm Calm - N/A   Scattered Clouds
6:53 AM 68.0 °F - 66.9 °F 96% 30.10 in 10.0 mi Calm Calm - N/A   Scattered Clouds
7:44 AM 69.8 °F - 69.8 °F 100% 30.11 in 10.0 mi Calm Calm - N/A   Mostly Cloudy
7:53 AM 71.1 °F - 70.0 °F 96% 30.12 in 10.0 mi Calm Calm - N/A   Mostly Cloudy
8:43 AM 73.4 °F - 69.8 °F 88% 30.12 in 10.0 mi Calm Calm - N/A   Scattered Clouds
8:53 AM 75.0 °F - 69.1 °F 82% 30.12 in 10.0 mi SSW 3.5 mph - N/A   Scattered Clouds
9:53 AM 78.1 °F - 68.0 °F 71% 30.13 in 10.0 mi South 5.8 mph - N/A   Mostly Cloudy
10:53 AM 78.1 °F - 66.9 °F 68% 30.13 in 10.0 mi SSE 3.5 mph - N/A   Mostly Cloudy
11:30 AM 78.8 °F - 68.0 °F 69% 30.11 in 10.0 mi SE 13.8 mph - N/A   Mostly Cloudy
11:53 AM 78.1 °F - 68.0 °F 71% 30.11 in 10.0 mi SSE 10.4 mph - 0.00 in Rain Light Rain
12:51 PM 80.6 °F 83.9 °F 69.8 °F 70% 30.09 in 10.0 mi SE 10.4 mph 19.6 mph 0.00 in   Mostly Cloudy
12:53 PM 81.0 °F 84.1 °F 69.1 °F 67% 30.09 in 10.0 mi SE 10.4 mph 19.6 mph 0.00 in   Mostly Cloudy
1:53 PM 81.0 °F 84.1 °F 69.1 °F 67% 30.05 in 10.0 mi SSE 13.8 mph - N/A   Mostly Cloudy
2:53 PM 81.0 °F 83.8 °F 68.0 °F 65% 30.03 in 10.0 mi SSE 17.3 mph - N/A   Scattered Clouds
3:53 PM 81.0 °F 83.8 °F 68.0 °F 65% 30.03 in 10.0 mi South 15.0 mph - N/A   Scattered Clouds
4:53 PM 79.0 °F - 66.9 °F 66% 30.02 in 10.0 mi South 15.0 mph - N/A   Scattered Clouds
5:53 PM 77.0 °F - 66.9 °F 71% 30.02 in 10.0 mi South 12.7 mph - N/A   Scattered Clouds
6:53 PM 75.9 °F - 68.0 °F 76% 30.02 in 10.0 mi SSE 9.2 mph - N/A   Partly Cloudy
7:53 PM 75.0 °F - 68.0 °F 79% 30.03 in 10.0 mi South 9.2 mph - N/A   Partly Cloudy
8:53 PM 73.9 °F - 68.0 °F 82% 30.05 in 10.0 mi South 6.9 mph - N/A   Partly Cloudy
9:53 PM 73.0 °F - 68.0 °F 84% 30.06 in 10.0 mi SSW 4.6 mph - N/A   Partly Cloudy
10:53 PM 72.0 °F - 68.0 °F 87% 30.06 in 10.0 mi South 3.5 mph - N/A   Partly Cloudy
11:53 PM 72.0 °F - 68.0 °F 87% 30.05 in 10.0 mi South 5.8 mph - N/A   Partly Cloudy